ONEWEB-0012 1 44057U 19010A 21111.50673288 .00000001 00000-0 -29910-4 0 9993 2 44057 87.9120 272.7473 0001816 94.9965 265.1376 13.21814583103559 ONEWEB-0010 1 44058U 19010B 21111.50834605 .00000032 00000-0 46949-4 0 9990 2 44058 87.9123 272.7552 0001509 94.4837 265.6469 13.21815827103609 ONEWEB-0008 1 44059U 19010C 21111.50513298 -.00000053 00000-0 -15875-3 0 9991 2 44059 87.9126 272.7667 0001781 93.6522 266.4816 13.21814722103703 ONEWEB-0007 1 44060U 19010D 21111.50988556 .00000009 00000-0 -10486-4 0 9990 2 44060 87.9120 272.7488 0001825 102.4663 257.6675 13.21811209103717 ONEWEB-0006 1 44061U 19010E 21111.51144596 .00000060 00000-0 11452-3 0 9999 2 44061 87.9125 272.7643 0001775 94.6208 265.5129 13.21814979103772 ONEWEB-0011 1 44062U 19010F 21111.51297988 .00000006 00000-0 -16883-4 0 9999 2 44062 87.9130 272.7774 0002070 100.1325 260.0042 13.21810051103766 ONEWEB-0013 1 45131U 20008A 21111.37196009 -.00000408 00000-0 -12251-2 0 9992 2 45131 87.9148 66.1908 0002469 75.3104 284.8297 13.09306326 59674 ONEWEB-0017 1 45132U 20008B 21111.55846828 -.00000480 00000-0 -14116-2 0 9996 2 45132 87.8875 50.5216 0001916 92.1426 267.9921 13.10376889 61391 ONEWEB-0020 1 45133U 20008C 21111.52731491 .00000060 00000-0 13540-3 0 9996 2 45133 87.8871 50.5156 0002455 107.2168 252.9228 13.10367978 61787 ONEWEB-0021 1 45134U 20008D 21111.54288404 -.00000616 00000-0 -18018-2 0 9993 2 45134 87.8777 50.5001 0002062 73.3688 286.7666 13.10367851 62092 ONEWEB-0022 1 45135U 20008E 21111.56782461 .00000060 00000-0 13630-3 0 9995 2 45135 87.8882 50.5026 0001792 96.9933 263.1398 13.10374130 61795 ONEWEB-0023 1 45136U 20008F 21111.55534487 -.00000756 00000-0 -22014-2 0 9997 2 45136 87.8795 50.5356 0002804 72.8660 287.2774 13.10373572 61525 ONEWEB-0024 1 45137U 20008G 21111.52575594 .00000171 00000-0 45284-3 0 9993 2 45137 87.8817 50.5435 0002223 73.0779 287.0592 13.10368187 61687 ONEWEB-0025 1 45138U 20008H 21111.54443427 -.00000627 00000-0 -18322-2 0 9995 2 45138 87.8864 50.5840 0002165 78.2554 281.8816 13.10370952 62015 ONEWEB-0026 1 45139U 20008J 21111.30387002 -.00111816 00000-0 -32233+0 0 9993 2 45139 87.8899 35.4700 0002079 100.9400 259.1962 13.10779438 64326 ONEWEB-0028 1 45140U 20008K 21111.53511645 -.00000268 00000-0 -80448-3 0 9995 2 45140 87.8871 50.5367 0002124 74.0378 286.0983 13.10364822 61934 ONEWEB-0032 1 45141U 20008L 21111.56001832 -.00000595 00000-0 -17419-2 0 9991 2 45141 87.8852 50.5885 0001917 75.1661 284.9678 13.10374185 61745 ONEWEB-0033 1 45142U 20008M 21111.53354533 -.00000240 00000-0 -72265-3 0 9996 2 45142 87.8844 50.5352 0001958 77.4851 282.6495 13.10370092 61652 ONEWEB-0035 1 45143U 20008N 21111.56628173 .00000043 00000-0 87264-4 0 9999 2 45143 87.8879 50.5309 0002074 80.9196 279.2166 13.10368734 61381 ONEWEB-0036 1 45144U 20008P 21111.55691956 -.00000504 00000-0 -14794-2 0 9998 2 45144 87.8875 50.4957 0002304 78.7698 281.3688 13.10376547 61816 ONEWEB-0038 1 45145U 20008Q 21111.53105689 .00000341 00000-0 93214-3 0 9992 2 45145 87.8936 35.2803 0001749 61.0506 299.0796 13.10946819 63577 ONEWEB-0039 1 45146U 20008R 21111.53820617 -.00000440 00000-0 -12979-2 0 9998 2 45146 87.8870 50.5382 0002061 57.2931 302.8394 13.10370364 61609 ONEWEB-0040 1 45147U 20008S 21111.53042409 -.00000018 00000-0 -87045-4 0 9993 2 45147 87.8867 50.5855 0002079 71.1713 288.9640 13.10368730 61302 ONEWEB-0041 1 45148U 20008T 21111.50678234 .00000030 00000-0 25811-4 0 9997 2 45148 87.9396 34.9155 0016147 220.6856 139.3088 13.48321619 64359 ONEWEB-0043 1 45149U 20008U 21111.53198956 -.00000150 00000-0 -46605-3 0 9997 2 45149 87.8871 50.5344 0002512 68.1326 292.0068 13.10372060 61626 ONEWEB-0044 1 45150U 20008V 21111.56158210 -.00000257 00000-0 -77363-3 0 9994 2 45150 87.8877 50.5397 0002114 65.9197 294.2151 13.10376622 61929 ONEWEB-0045 1 45151U 20008W 21111.53868210 .00000546 00000-0 15108-2 0 9997 2 45151 87.8914 35.4197 0001473 73.3513 286.7776 13.11129217 63652 ONEWEB-0047 1 45152U 20008X 21111.55378147 -.00000535 00000-0 -15697-2 0 9998 2 45152 87.8876 50.5343 0002076 76.4057 283.7302 13.10375676 61648 ONEWEB-0048 1 45153U 20008Y 21111.54911984 -.00000635 00000-0 -18554-2 0 9996 2 45153 87.8873 50.5253 0002282 75.6996 284.4384 13.10372756 61259 ONEWEB-0049 1 45154U 20008Z 21111.55068524 -.00000620 00000-0 -18112-2 0 9995 2 45154 87.8868 50.5315 0002510 79.9271 280.2140 13.10375311 61478 ONEWEB-0051 1 45155U 20008AA 21111.53494675 .00000479 00000-0 13222-2 0 9991 2 45155 87.8890 35.4248 0002216 93.6697 266.4684 13.11040903 64333 ONEWEB-0052 1 45156U 20008AB 21111.54755507 -.00000623 00000-0 -18209-2 0 9990 2 45156 87.8864 50.5280 0003310 76.4506 283.6990 13.10373739 61381 ONEWEB-0053 1 45157U 20008AC 21111.52886833 -.00000027 00000-0 -11444-3 0 9999 2 45157 87.8872 50.5435 0002148 67.7620 292.3735 13.10368156 61359 ONEWEB-0054 1 45158U 20008AD 21111.56469352 -.00000594 00000-0 -17391-2 0 9992 2 45158 87.8877 50.5421 0001767 76.9090 283.2234 13.10372819 61476 ONEWEB-0056 1 45159U 20008AE 21111.54599730 -.00000616 00000-0 -18025-2 0 9995 2 45159 87.8872 50.5389 0002188 77.3320 282.8052 13.10369026 61620 ONEWEB-0057 1 45160U 20008AF 21111.55223840 -.00000606 00000-0 -17714-2 0 9997 2 45160 87.8878 50.5064 0002172 68.5936 291.5423 13.10367087 61798 ONEWEB-0058 1 45161U 20008AG 21111.53977193 -.00000483 00000-0 -14202-2 0 9995 2 45161 87.8877 50.5277 0001842 69.1193 291.0132 13.10371541 61869 ONEWEB-0059 1 45162U 20008AH 21111.53666502 -.00000327 00000-0 -97420-3 0 9996 2 45162 87.8871 50.5364 0001865 71.0750 289.0580 13.10370758 61769 ONEWEB-0062 1 45163U 20008AJ 21111.56315932 -.00000177 00000-0 -54383-3 0 9992 2 45163 87.8876 50.5269 0002352 77.9302 282.2089 13.10374685 61637 ONEWEB-0065 1 45164U 20008AK 21111.54132027 -.00000542 00000-0 -15897-2 0 9995 2 45164 87.8787 50.5171 0002040 76.8600 283.2755 13.10370224 61326 ONEWEB-0066 1 45424U 20020A 21111.51747322 -.00000270 00000-0 -80198-3 0 9990 2 45424 87.8947 35.3604 0000926 55.7388 304.3827 13.10984007 55929 ONEWEB-0067 1 45425U 20020B 21111.55404182 .00000358 00000-0 96764-3 0 9990 2 45425 87.8943 35.3668 0001830 66.8183 293.3138 13.11908829 55984 ONEWEB-0080 1 45426U 20020C 21111.49795456 -.00000364 00000-0 -10622-2 0 9998 2 45426 87.8946 35.3559 0002030 87.7335 272.4026 13.11542551 55947 ONEWEB-0090 1 45427U 20020D 21111.51038581 -.00000193 00000-0 -58330-3 0 9990 2 45427 87.8952 35.3714 0001820 75.0920 285.0409 13.11191639 55913 ONEWEB-0061 1 45428U 20020E 21111.32358902 .00000633 00000-0 17382-2 0 9990 2 45428 87.8947 35.3804 0002004 79.1560 280.9794 13.11936908 55847 ONEWEB-0081 1 45429U 20020F 21111.52258091 -.00000075 00000-0 -25033-3 0 9996 2 45429 87.8960 35.2980 0001673 70.4854 289.6454 13.10868785 55988 ONEWEB-0069 1 45430U 20020G 21111.51224381 -.00000466 00000-0 -13559-2 0 9995 2 45430 87.8947 35.3661 0001759 75.9814 284.1509 13.11115151 55910 ONEWEB-0031 1 45431U 20020H 21111.49113028 -.00000181 00000-0 -54372-3 0 9991 2 45431 87.8943 35.3698 0002142 73.7618 286.3745 13.11680603 55894 ONEWEB-0027 1 45432U 20020J 21111.49222724 .00000019 00000-0 13310-4 0 9992 2 45432 87.9632 20.2013 0026142 347.8791 12.1715 13.28959831 58400 ONEWEB-0064 1 45433U 20020K 21111.33677555 -.00000116 00000-0 -36204-3 0 9998 2 45433 87.8946 35.4079 0001991 69.0518 291.0823 13.11740667 55900 ONEWEB-0018 1 45434U 20020L 21111.51399039 -.00000428 00000-0 -12485-2 0 9997 2 45434 87.8947 35.3508 0001931 76.8882 283.2461 13.11076519 55877 ONEWEB-0083 1 45435U 20020M 21111.50518114 -.00000563 00000-0 -16269-2 0 9998 2 45435 87.8946 35.3585 0001927 72.6802 287.4536 13.11315461 55919 ONEWEB-0095 1 45436U 20020N 21111.49275503 -.00000257 00000-0 -75774-3 0 9996 2 45436 87.8945 35.3635 0001924 73.8119 286.3221 13.11661297 55916 ONEWEB-0092 1 45437U 20020P 21111.55086997 .00000433 00000-0 11773-2 0 9993 2 45437 87.8958 35.2933 0002626 85.9752 274.1677 13.11923508 56038 ONEWEB-0085 1 45438U 20020Q 21111.49966675 -.00000502 00000-0 -14506-2 0 9993 2 45438 87.8946 35.3760 0001854 74.2574 285.8759 13.11499550 55911 ONEWEB-0096 1 45439U 20020R 21111.50664156 -.00000460 00000-0 -13377-2 0 9993 2 45439 87.8945 35.3633 0002116 84.9754 275.1616 13.11273491 55907 ONEWEB-0037 1 45440U 20020S 21111.49448743 -.00000282 00000-0 -82777-3 0 9998 2 45440 87.8943 35.3786 0002715 82.5980 277.5456 13.11620867 55930 ONEWEB-0042 1 45441U 20020T 21111.40457629 .00000222 00000-0 58750-3 0 9999 2 45441 87.8945 35.3864 0001964 65.1399 294.9933 13.11916922 55894 ONEWEB-0098 1 45442U 20020U 21111.49622956 -.00000324 00000-0 -94775-3 0 9998 2 45442 87.8943 35.3722 0001683 69.4719 290.6590 13.11577208 55888 ONEWEB-0055 1 45443U 20020V 21111.33196415 .00000139 00000-0 35430-3 0 9993 2 45443 87.8955 35.3443 0001787 74.9062 285.2263 13.11785523 55832 ONEWEB-0093 1 45444U 20020W 21111.29665521 .00000085 00000-0 20536-3 0 9999 2 45444 87.8949 35.4077 0002126 77.9181 282.2184 13.10886714 55891 ONEWEB-0029 1 45445U 20020X 21111.32990270 .00000133 00000-0 33665-3 0 9997 2 45445 87.8947 35.3823 0001850 76.9821 283.1513 13.11907430 55875 ONEWEB-0068 1 45446U 20020Y 21111.51916350 -.00003638 00000-0 -10371-1 0 9998 2 45446 87.8946 35.3633 0001583 67.0154 293.1140 13.10965886 55849 ONEWEB-0046 1 45447U 20020Z 21111.51571135 -.00000389 00000-0 -11385-2 0 9994 2 45447 87.8949 35.3680 0001954 76.1317 284.0028 13.11036527 55856 ONEWEB-0063 1 45448U 20020AA 21111.55550108 .00000285 00000-0 76195-3 0 9990 2 45448 87.8940 35.3735 0002509 61.6674 298.4707 13.11931655 55940 ONEWEB-0019 1 45449U 20020AB 21111.52087224 -.00000958 00000-0 -27606-2 0 9993 2 45449 87.8953 35.3391 0001748 82.8806 277.2521 13.10912181 55782 ONEWEB-0094 1 45450U 20020AC 21111.27627791 -.00004567 00000-0 -10046-1 0 9995 2 45450 87.9655 20.1977 0025017 353.0794 6.9994 13.28354858 58324 ONEWEB-0087 1 45451U 20020AD 21111.56214141 .00000053 00000-0 11171-3 0 9995 2 45451 87.8952 35.3580 0001858 78.3505 281.7832 13.11825452 55838 ONEWEB-0082 1 45452U 20020AE 21111.33502849 -.00000050 00000-0 -17631-3 0 9992 2 45452 87.8945 35.3689 0001748 67.0875 293.0437 13.11787197 55890 ONEWEB-0050 1 45453U 20020AF 21111.32404914 .00000635 00000-0 55835-4 0 9992 2 45453 87.5495 13.5145 0024084 309.5351 50.3751 14.94577911 59210 ONEWEB-0034 1 45454U 20020AG 21111.50157435 -.00000543 00000-0 -15674-2 0 9991 2 45454 87.8943 35.3602 0002014 72.5700 287.5648 13.11393326 55833 ONEWEB-0060 1 45455U 20020AH 21111.50865035 -.00000533 00000-0 -15443-2 0 9997 2 45455 87.8948 35.3525 0001898 76.1025 284.0314 13.11230326 55799 ONEWEB-0086 1 45456U 20020AJ 21111.52311595 -.00006220 00000-0 -17724-1 0 9999 2 45456 87.8949 35.3473 0001831 72.9878 287.1450 13.10923677 55859 ONEWEB-0088 1 45457U 20020AK 21111.50342360 -.00000497 00000-0 -14387-2 0 9995 2 45457 87.8939 35.3843 0002007 72.9154 287.2194 13.11355932 55785 ONEWEB-0102 1 47258U 20100A 21111.58334491 .00046667 00000-0 10955+0 0 9990 2 47258 87.9372 5.0325 0001663 103.7596 285.2938 13.23541550 1711 ONEWEB-0109 1 47259U 20100B 21111.58334491 .00000013 00000-0 00000+0 0 9996 2 47259 87.8941 4.9037 0002225 104.7940 69.8028 13.13318315 17623 ONEWEB-0110 1 47260U 20100C 21111.58334491 .00000013 00000-0 00000+0 0 9998 2 47260 87.9335 4.9315 0001370 80.6604 270.8592 13.23183638 17787 ONEWEB-0111 1 47261U 20100D 21111.58334491 .00000013 00000-0 00000+0 0 9999 2 47261 87.9338 4.9277 0001496 88.9200 75.8881 13.23420560 17625 ONEWEB-0114 1 47262U 20100E 21111.58334491 .00049176 00000-0 13608+0 0 9991 2 47262 87.8909 4.9089 0001882 98.5104 28.1406 13.12368866 1703 ONEWEB-0117 1 47263U 20100F 21111.58334491 .00050505 00000-0 13865+0 0 9995 2 47263 87.8938 4.9824 0001390 99.1841 62.3882 13.12904977 1710 ONEWEB-0118 1 47264U 20100G 21111.58334491 .00045374 00000-0 12443+0 0 9995 2 47264 87.8991 4.9610 0002125 97.0087 289.0342 13.13014356 17786 ONEWEB-0119 1 47265U 20100H 21111.58334491 .00050867 00000-0 12542+0 0 9999 2 47265 87.9272 5.0271 0002103 118.7243 101.7447 13.20206344 17757 ONEWEB-0120 1 47266U 20100J 21111.58334491 .00046733 00000-0 10983+0 0 9994 2 47266 87.9384 4.8733 0001814 109.5710 212.7936 13.23464441 1708 ONEWEB-0121 1 47267U 20100K 21111.58334491 .00048290 00000-0 10518+0 0 9999 2 47267 87.9605 4.8372 0010843 243.2098 48.8962 13.28506905 1851 ONEWEB-0122 1 47268U 20100L 21111.58334491 .00000013 00000-0 00000+0 0 9996 2 47268 87.9164 4.9524 0001480 97.2952 78.1936 13.19311563 17617 ONEWEB-0123 1 47269U 20100M 21111.58334491 .00049921 00000-0 11785+0 0 9990 2 47269 87.9416 4.9843 0001924 103.3174 11.8015 13.23141206 1705 ONEWEB-0124 1 47270U 20100N 21111.58334491 .00047473 00000-0 11180+0 0 9991 2 47270 87.9378 4.9764 0001834 96.7131 202.0227 13.23320780 1721 ONEWEB-0125 1 47271U 20100P 21111.58334491 .00051627 00000-0 12203+0 0 9995 2 47271 87.9341 4.9335 0001622 117.8466 66.9163 13.23044024 1705 ONEWEB-0126 1 47272U 20100Q 21111.58334491 .00046211 00000-0 10953+0 0 9999 2 47272 87.9355 5.0317 0001851 97.0384 264.9686 13.22897357 1743 ONEWEB-0127 1 47273U 20100R 21111.58334491 .00000013 00000-0 00000+0 0 9992 2 47273 87.9317 4.9684 0001761 101.4925 92.7348 13.22044040 17784 ONEWEB-0128 1 47274U 20100S 21111.58334491 .00049624 00000-0 11654+0 0 9991 2 47274 87.9398 4.9431 0001531 110.7895 356.8115 13.23492003 1706 ONEWEB-0129 1 47275U 20100T 21111.58334491 .00051645 00000-0 12167+0 0 9998 2 47275 87.9379 4.8233 0001872 90.2919 89.5696 13.23266656 17739 ONEWEB-0130 1 47276U 20100U 21111.58334491 .00046430 00000-0 12370+0 0 9991 2 47276 87.9047 4.9251 0001787 99.6149 211.2281 13.14980951 1790 ONEWEB-0131 1 47277U 20100V 21111.58334491 .00000013 00000-0 00000+0 0 9996 2 47277 87.9099 4.8698 0000873 96.7486 234.1283 13.17766480 17749 ONEWEB-0132 1 47278U 20100W 21111.58334491 .00000013 00000-0 00000+0 0 9997 2 47278 87.9225 5.0301 0002343 90.1867 56.8462 13.20129096 17647 ONEWEB-0133 1 47279U 20100X 21111.58334491 .00051038 00000-0 11985+0 0 9995 2 47279 87.9405 4.8786 0001895 86.8670 132.5818 13.23488769 1702 ONEWEB-0134 1 47280U 20100Y 21111.58334491 .00000013 00000-0 00000+0 0 9990 2 47280 87.9537 4.9661 0002646 119.2991 144.2220 13.28435917 17767 ONEWEB-0135 1 47281U 20100Z 21111.58334491 .00000013 00000-0 00000+0 0 9991 2 47281 87.9109 4.9472 0001514 84.4158 313.1773 13.17716448 17796 ONEWEB-0136 1 47282U 20100AA 21111.58334491 .00000013 00000-0 00000+0 0 9992 2 47282 87.9384 4.8678 0001496 101.9337 124.7356 13.23666303 17729 ONEWEB-0137 1 47283U 20100AB 21111.58334491 .00051454 00000-0 12442+0 0 9991 2 47283 87.9304 5.0333 0001729 102.4292 94.2673 13.21516297 1706 ONEWEB-0138 1 47284U 20100AC 21111.58334491 .00050361 00000-0 11864+0 0 9995 2 47284 87.9469 5.0029 0001716 122.6766 114.2259 13.23277729 17703 ONEWEB-0139 1 47285U 20100AD 21111.58334491 .00000013 00000-0 00000+0 0 9995 2 47285 87.9353 4.9669 0001148 110.4620 198.3893 13.23367071 17782 ONEWEB-0140 1 47286U 20100AE 21111.58334491 .00000013 00000-0 00000+0 0 9996 2 47286 87.9208 4.9704 0001706 105.5217 154.3877 13.19795213 17747 ONEWEB-0141 1 47287U 20100AF 21111.58334491 .00045415 00000-0 12426+0 0 9997 2 47287 87.8997 5.0113 0001712 100.8612 237.7542 13.13169105 1727 ONEWEB-0142 1 47288U 20100AG 21111.58334491 .00000013 00000-0 00000+0 0 9998 2 47288 87.9104 5.0450 0001961 83.9724 121.5966 13.17126324 17732 ONEWEB-0143 1 47289U 20100AH 21111.58334491 .00047001 00000-0 10343+0 0 9998 2 47289 87.9644 4.8752 0002049 91.6594 236.6749 13.27853248 1703 ONEWEB-0144 1 47290U 20100AJ 21111.58334491 .00050882 00000-0 13958+0 0 9996 2 47290 87.8942 4.8902 0002080 96.2797 99.3931 13.12953090 1722 ONEWEB-0145 1 47291U 20100AK 21111.58334491 .00050028 00000-0 11800+0 0 9993 2 47291 87.9376 4.9514 0001978 93.4697 150.9822 13.23197923 1706 ONEWEB-0146 1 47292U 20100AL 21111.58334491 .00049751 00000-0 11663+0 0 9992 2 47292 87.9393 5.0034 0001872 105.2133 4.4848 13.23610776 17721 ONEWEB-0147 1 47293U 20100AM 21111.58334491 .00000013 00000-0 00000+0 0 9994 2 47293 87.9095 4.9680 0006205 226.4972 264.8801 13.17001175 17639 ONEWEB-0115 1 48042U 21025A 21111.58334491 -.01087929 00000-0 -34447-1 0 9992 2 48042 87.4091 340.3807 0007535 159.0154 203.9562 15.35489773 1818 ONEWEB-0152 1 48043U 21025B 21111.58334491 -.01117824 00000-0 -41753-1 0 9999 2 48043 87.4084 340.4023 0010403 146.3266 57.3870 15.30287166 1790 ONEWEB-0153 1 48044U 21025C 21111.58334491 -.01110904 00000-0 -46296-1 0 9999 2 48044 87.4107 340.4266 0009875 170.8792 252.8142 15.26711953 1787 ONEWEB-0154 1 48045U 21025D 21111.58334491 -.01123942 00000-0 -51909-1 0 9993 2 48045 87.4030 340.4381 0007910 155.5185 135.4433 15.23358150 1798 ONEWEB-0116 1 48046U 21025E 21111.58334491 -.01088279 00000-0 -35023-1 0 9996 2 48046 87.4072 340.3755 0007252 156.3804 192.4413 15.34986417 1791 ONEWEB-0150 1 48047U 21025F 21111.58334491 -.01069421 00000-0 -37724-1 0 9995 2 48047 87.4092 340.3922 0009227 140.9036 121.4496 15.32013166 1759 ONEWEB-0107 1 48048U 21025G 21111.58334491 -.01118736 00000-0 -46005-1 0 9992 2 48048 87.4077 340.4126 0010428 166.8136 273.5602 15.27162625 1783 ONEWEB-0101 1 48049U 21025H 21111.58334491 -.01116138 00000-0 -53925-1 0 9996 2 48049 87.3988 340.4504 0009255 146.0776 78.0705 15.21797461 1755 ONEWEB-0113 1 48050U 21025J 21111.58334491 -.01118706 00000-0 -40988-1 0 9996 2 48050 87.4094 340.3972 0010093 143.4757 83.4389 15.30914062 1763 ONEWEB-0112 1 48051U 21025K 21111.58334491 -.01096997 00000-0 -36397-1 0 9993 2 48051 87.4092 340.3844 0006909 152.8639 175.0337 15.34055591 1818 ONEWEB-0156 1 48052U 21025L 21111.58334491 -.01105401 00000-0 -44703-1 0 9995 2 48052 87.4094 340.4176 0010400 165.6285 293.9779 15.27675428 1763 ONEWEB-0161 1 48053U 21025M 21111.58334491 -.01121538 00000-0 -52599-1 0 9997 2 48053 87.3992 340.4500 0008295 153.4210 116.1374 15.22830166 1756 ONEWEB-0158 1 48054U 21025N 21111.58334491 -.01077026 00000-0 -33385-1 0 9992 2 48054 87.4079 340.3725 0007776 159.5542 223.9839 15.36120579 1815 ONEWEB-0157 1 48055U 21025P 21111.58334491 -.01112083 00000-0 -40017-1 0 9996 2 48055 87.4086 340.3966 0009674 142.3123 102.2561 15.31481101 1777 ONEWEB-0162 1 48056U 21025Q 21111.58334491 -.01102721 00000-0 -52336-1 0 9992 2 48056 87.4010 340.4392 0008446 149.2081 98.3937 15.22373866 1819 ONEWEB-0155 1 48057U 21025R 21111.58334491 -.01095194 00000-0 -32016-1 0 9991 2 48057 87.4073 340.3706 0010467 158.9310 283.5109 15.37933474 1794 ONEWEB-0149 1 48058U 21025S 21111.58334491 -.01116399 00000-0 -47593-1 0 9999 2 48058 87.4077 340.4232 0008703 171.1959 224.5263 15.25995089 1760 ONEWEB-0148 1 48059U 21025T 21111.58334491 -.01114973 00000-0 -43016-1 0 9992 2 48059 87.4056 340.3967 0011001 154.5496 6.5116 15.29224728 1784 ONEWEB-0160 1 48060U 21025U 21111.58334491 -.01106110 00000-0 -49325-1 0 9997 2 48060 87.4042 340.4356 0007256 157.8352 171.0067 15.24491187 1859 ONEWEB-0163 1 48061U 21025V 21111.58334491 -.01088217 00000-0 -31594-1 0 9994 2 48061 87.4057 340.3554 0011005 157.2713 299.2141 15.38118406 1791 ONEWEB-0159 1 48062U 21025W 21111.58334491 -.01111351 00000-0 -38748-1 0 9999 2 48062 87.4093 340.3941 0008318 140.6322 140.1130 15.32505168 1787 ONEWEB-0164 1 48063U 21025X 21111.58334491 -.01110542 00000-0 -43373-1 0 9991 2 48063 87.4117 340.4140 0011091 156.5257 349.1644 15.28814144 1774 ONEWEB-0167 1 48064U 21025Y 21111.58334491 -.01111525 00000-0 -47971-1 0 9992 2 48064 87.4029 340.4257 0008365 172.1578 196.8149 15.25579728 1800 ONEWEB-0166 1 48065U 21025Z 21111.58334491 -.01081575 00000-0 -30853-1 0 9995 2 48065 87.4070 340.3624 0011425 156.0665 313.2837 15.38633780 1782 ONEWEB-0151 1 48066U 21025AA 21111.58334491 -.01101428 00000-0 -37090-1 0 9996 2 48066 87.4106 340.3927 0007508 146.8959 168.8974 15.33591699 1759 ONEWEB-0170 1 48067U 21025AB 21111.58334491 -.01120364 00000-0 -44518-1 0 9990 2 48067 87.4081 340.4080 0010536 160.8930 321.4125 15.28287616 1764 ONEWEB-0168 1 48068U 21025AC 21111.58334491 -.01114627 00000-0 -50239-1 0 9993 2 48068 87.4030 340.4304 0008041 164.0779 159.8309 15.24147523 1779 ONEWEB-0173 1 48069U 21025AD 21111.58334491 -.01067664 00000-0 -34774-1 0 9998 2 48069 87.4081 340.3781 0007224 150.1279 185.4704 15.34559396 1823 ONEWEB-0171 1 48070U 21025AE 21111.58334491 -.01065811 00000-0 -32179-1 0 9999 2 48070 87.4075 340.3645 0010150 160.4033 265.3656 15.36873597 1807 ONEWEB-0172 1 48071U 21025AF 21111.58334491 -.01100276 00000-0 -37682-1 0 9999 2 48071 87.4071 340.3776 0007981 143.2625 153.8782 15.33048733 1751 ONEWEB-0174 1 48072U 21025AG 21111.58334491 -.01034614 00000-0 -26813-1 0 9996 2 48072 87.4003 340.3479 0012828 138.1213 56.0709 15.41825205 1769 ONEWEB-0175 1 48073U 21025AH 21111.58334491 -.01114764 00000-0 -49220-1 0 9999 2 48073 87.4112 340.4420 0008166 168.5515 180.9862 15.24834014 1788 ONEWEB-0177 1 48074U 21025AJ 21111.58334491 -.01023035 00000-0 -27564-1 0 9997 2 48074 87.4013 340.3415 0012665 140.4515 40.6384 15.40631278 1887 ONEWEB-0178 1 48075U 21025AK 21111.58334491 -.01062310 00000-0 -29899-1 0 9990 2 48075 87.4046 340.3520 0012781 143.5494 4.9542 15.39420818 1760 ONEWEB-0108 1 48076U 21025AL 21111.58334491 -.01045149 00000-0 -28770-1 0 9999 2 48076 87.4061 340.3587 0012675 142.5137 24.6665 15.40046639 1768 ONEWEB-0169 1 48077U 21025AM 21111.58334491 -.01105315 00000-0 -41731-1 0 9994 2 48077 87.4141 340.4055 0011029 152.0615 27.9450 15.29898599 1763